Location: Garshuizen
(53.3675°N, 6.7248°E)
Time: 11:17:18
(UTC+00:00)

Cosmos 2221 - Pass Details

Date: 15 May 2026
Orbit: 569 x 586 km, 82.5° (Epoch: 5 June)

Event Time Altitude Azimuth Distance (km) Brightness Sun altitude
Exits shadow 22:03:19 22° 126° (SE) 1,268 3.7 -15.2°
Maximum altitude 22:04:51 29° 90° (E) 1,084 3.6 -15.3°
Drops below altitude 10° 22:08:29 10° 30° (NNE) 1,909 5.6 -15.5°
Sets 22:10:53 0° 19° (NNE) 2,817 6.8 -15.6°
